DC4AT Weather Reports


Display with metric or nautical units.
time (UTC)temp
F
wind
direction
speed
MPH
gust
MPH
rain 1hr
in
rain 24hr
in
rain mn
in
humidity
%
barometer
mb
20260504021338 55 142 0.0 0.0 0.00 0.00 0.00 77 1012.5
20260504020338 55 142 0.0 1.0 0.00 0.00 0.00 76 1012.5
20260504015338 55 142 1.0 2.0 0.00 0.00 0.00 76 1012.5
20260504014338 54 142 2.0 3.0 0.00 0.00 0.00 77 1012.5
20260504013338 54 142 1.0 3.0 0.00 0.00 0.00 76 1012.4
20260504012338 54 142 1.0 0.0 0.00 0.00 0.00 76 1012.2
20260504011338 55 142 1.0 2.0 0.00 0.00 0.00 74 1012.1
20260504010338 56 142 0.0 0.0 0.00 0.00 0.00 73 1012.1
20260504005338 56 126 0.0 1.0 0.00 0.00 0.00 72 1012.5
20260504004338 56 126 0.0 0.0 0.00 0.00 0.00 72 1012.4
20260504003338 56 126 0.0 0.0 0.00 0.00 0.00 72 1012.2
20260504002338 57 130 1.0 2.0 0.00 0.00 0.00 72 1012.1
20260504001338 57 130 1.0 3.0 0.00 0.00 0.00 72 1012.1
20260504000338 58 150 0.0 0.0 0.00 0.00 0.00 72 1012.1
20260503235338 58 150 0.0 0.0 0.00 0.00 0.00 72 1012.1
20260503234338 58 150 0.0 0.0 0.00 0.00 0.00 72 1012.1
20260503233338 58 150 1.0 2.0 0.00 0.00 0.00 71 1012.2
20260503232338 59 225 0.0 1.0 0.00 0.00 0.00 69 1012.2
20260503231338 60 227 0.0 3.0 0.00 0.00 0.00 67 1012.3
20260503230338 60 236 0.0 0.0 0.00 0.00 0.00 67 1012.4
20260503225338 61 236 0.0 0.0 0.00 0.00 0.00 64 1012.3
20260503224338 62 236 1.0 0.0 0.00 0.00 0.00 62 1012.3
20260503223338 62 234 1.0 4.0 0.00 0.00 0.00 61 1012.4
20260503222338 62 244 2.0 5.0 0.00 0.00 0.00 60 1012.5
20260503221338 63 250 4.0 7.0 0.00 0.00 0.00 58 1012.5
20260503220338 63 246 5.0 9.0 0.00 0.00 0.00 57 1012.6
20260503215338 63 227 6.0 11.0 0.00 0.00 0.00 56 1012.7
20260503214338 64 242 8.0 13.0 0.00 0.00 0.00 56 1012.7
20260503213338 64 277 8.0 13.0 0.00 0.00 0.00 55 1012.7
20260503212338 64 255 8.0 14.0 0.00 0.00 0.00 55 1012.7
20260503211338 64 244 6.0 10.0 0.00 0.00 0.00 55 1012.6
20260503210338 64 260 5.0 11.0 0.00 0.00 0.00 55 1012.3
20260503205338 64 228 4.0 4.0 0.00 0.00 0.00 53 1012.3
20260503204338 65 232 4.0 7.0 0.00 0.00 0.00 53 1012.1
20260503203338 65 248 5.0 8.0 0.00 0.00 0.00 52 1012.0
20260503202339 65 236 6.0 11.0 0.00 0.00 0.00 51 1012.2
20260503201339 65 224 4.0 9.0 0.00 0.00 0.00 50 1012.1
20260503200339 65 229 4.0 8.0 0.00 0.00 0.00 50 1012.1
20260503195339 66 247 5.0 8.0 0.00 0.00 0.00 49 1012.1
20260503194339 66 225 3.0 8.0 0.00 0.00 0.00 51 1012.0
20260503193339 66 250 3.0 7.0 0.00 0.00 0.00 50 1011.7
20260503192339 66 264 2.0 6.0 0.00 0.00 0.00 50 1011.6
20260503191339 66 276 0.0 4.0 0.00 0.00 0.00 51 1011.3
20260503190339 67 296 1.0 3.0 0.00 0.00 0.00 50 1011.2
20260503185339 67 295 1.0 4.0 0.00 0.00 0.00 49 1011.0
20260503184339 67 285 2.0 6.0 0.00 0.00 0.00 47 1011.0
20260503183339 67 330 2.0 4.0 0.00 0.00 0.00 46 1010.9
20260503182339 68 317 2.0 5.0 0.00 0.00 0.00 46 1010.9
20260503181339 68 315 3.0 7.0 0.00 0.00 0.00 45 1010.8
20260503180339 68 306 3.0 5.0 0.00 0.00 0.00 44 1010.7
20260503175339 68 294 2.0 7.0 0.00 0.00 0.00 43 1010.6
20260503174339 69 264 3.0 10.0 0.00 0.00 0.00 42 1010.7
20260503173339 69 286 1.0 4.0 0.00 0.00 0.00 42 1010.6
20260503172339 69 304 0.0 3.0 0.00 0.00 0.00 42 1010.6
20260503171339 70 273 1.0 4.0 0.00 0.00 0.00 41 1010.6
20260503170339 70 302 1.0 4.0 0.00 0.00 0.00 41 1010.5
20260503150339 73 292 4.0 10.0 0.00 0.00 0.00 39 1010.9
20260503131339 68 72 1.0 3.0 0.00 0.00 0.00 56 1011.9
20260503130340 67 73 1.0 4.0 0.00 0.00 0.00 53 1011.9
20260503110340 63 96 0.0 0.0 0.00 0.00 0.00 69 1013.0
20260503090340 69 305 3.0 9.0 0.00 0.00 0.00 53 1013.4
20260503081340 66 37 3.0 5.0 0.00 0.00 0.00 58 1013.3
20260503080340 65 34 2.0 3.0 0.00 0.00 0.00 57 1013.2
20260503072340 62 348 1.0 3.0 0.00 0.00 0.00 60 1013.3
20260503071340 61 5 0.0 0.0 0.00 0.00 0.00 68 1013.3
20260503070340 59 5 0.0 0.0 0.00 0.00 0.00 69 1013.4
20260503060340 54 107 2.0 4.0 0.00 0.00 0.00 74 1013.2
20260503054340 53 103 2.0 4.0 0.00 0.00 0.00 76 1013.2
20260503053341 52 130 1.0 3.0 0.00 0.00 0.00 78 1013.2
20260503052341 51 130 1.0 4.0 0.00 0.00 0.00 82 1013.2
20260503051341 50 107 0.0 3.0 0.00 0.00 0.00 84 1013.1
20260503050341 49 135 0.0 0.0 0.00 0.00 0.00 83 1013.3
20260503045341 48 134 0.0 3.0 0.00 0.00 0.00 84 1013.4
20260503044341 48 192 0.0 0.0 0.00 0.00 0.00 83 1013.4
20260503043341 48 191 0.0 0.0 0.00 0.00 0.00 83 1013.4
20260503042341 48 187 0.0 0.0 0.00 0.00 0.00 83 1013.5
20260503041341 48 187 0.0 0.0 0.00 0.00 0.00 83 1013.5
20260503040341 49 90 0.0 0.0 0.00 0.00 0.00 83 1013.6
20260503035341 49 90 0.0 2.0 0.00 0.00 0.00 82 1013.6
20260503034341 49 90 0.0 3.0 0.00 0.00 0.00 81 1013.6
20260503033341 49 223 0.0 0.0 0.00 0.00 0.00 80 1013.7
20260503032341 50 224 0.0 0.0 0.00 0.00 0.00 79 1013.6
20260503031341 50 224 0.0 1.0 0.00 0.00 0.00 79 1013.6
20260503030341 50 153 1.0 4.0 0.00 0.00 0.00 81 1013.6
20260503025341 50 320 0.0 2.0 0.00 0.00 0.00 80 1013.6
20260503024341 51 293 0.0 2.0 0.00 0.00 0.00 79 1013.6
20260503023341 51 293 1.0 2.0 0.00 0.00 0.00 78 1013.6
20260503022341 51 74 0.0 3.0 0.00 0.00 0.00 78 1013.7